Portada
METAR-TAF:

METAR-TAF

Aeroports :

NWS Office

Majuro, Illes Marshall

latitud: 07-05N, longitud: 171-12E, altitud: 4 m

Observació

L'informe es va fer fa 15 minuts, a les 01:54 UTC
Vent 5 kt del Est
Temperatura 27°C
Humitat 84%
Pressió 1009 hPa
Visibilitat: 24.1 km
Escasses núvols a una alçada de 1400 ft
Núvols disperses a una alçada de 4500 ft
Cel ennuvolat a una alçada de 11000 ft
Cel cobert a una alçada de 30000 ft

METAR: PKMR 180154Z 08005KT 15SM FEW014 SCT045 BKN110 OVC300 27/24 A2980 RMK RAE04 SLP091 T02700239

Hora: 14:09 (02:09 UTC)


TAF: manca

Observacions i pronòstics meteorològics de més de 4000 aeroports (METAR i TAF).

Les estacions disponibles són els punts grocs i vermells al mapa.

Posi el ratolí al punt desitjat per veure el nom de l'estació.

Feu clic per veure les observacions i els pronòstics meteorològics.

Per canviar el mapa: feu clic els botons verds amb una creu de color negre per apropar; al botó verd amb un guió per allunyar la imatge; o en les fletxes verdes per a mapes adjacents.


METAR-TAF: